Location: Unspecified
(0.0000°N, 0.0000°E)
Time: 17:19:01
(UTC+02:00)

ISS - Visible Passes

Search period start: 23 August 2014 00:00
Search period end: 02 September 2014 00:00
Orbit: 413 x 419 km, 51.6° (Epoch: 23 August)

Date Brightness Start Highest point End Pass type
(mag) Time Alt. Az. Time Alt. Az. Time Alt. Az.
28 Aug -0.2 21:49:53 10° NNW 21:49:54 10° NNW 21:49:54 10° NNW visible
29 Aug -1.5 21:02:00 10° N 21:04:00 19° NE 21:04:00 19° NE visible
30 Aug -0.9 21:49:21 10° WNW 21:51:08 23° W 21:51:08 23° W visible
31 Aug -3.2 21:00:19 10° NW 21:03:37 78° SW 21:05:26 25° SSE visible
